When you browse on this site, cookies collect data to enhance your experience and personalize the content and advertising you see.
Visit our Privacy Policy to learn more. By continuing to use the site, you agree to this use of cookies and data.
  • In Hungary
  • List of Countries
  • For 7 days
  • Water Temperature
  • Satellite Maps
  • Weather Map
  • News
  • Weather Widgets
  • user-avatar
    Login

    Hourly Weather Lipnica Mala

    Today, 26 June, Wednesday

    Time Temperature Precipitation Wind Pressure Humidity
    00:00 +20°C° 0 mm 1 mps 706 mmHg 90%
    01:00 +18°C° 0 mm 2 mps 706 mmHg 91%
    02:00 +19°C° 0 mm 1 mps 706 mmHg 91%
    03:00 +19°C° 0 mm 1 mps 705 mmHg 91%
    04:00 +19°C° 0 mm 1 mps 705 mmHg 91%
    05:00 +21°C° 0 mm 1 mps 706 mmHg 83%
    06:00 +23°C° 0 mm 1 mps 706 mmHg 76%
    07:00 +25°C° 0 mm 1 mps 707 mmHg 69%
    08:00 +27°C° 0 mm 1 mps 707 mmHg 62%
    09:00 +28°C° 0 mm 1 mps 707 mmHg 55%
    10:00 +30°C° 0 mm 1 mps 707 mmHg 47%
    11:00 +30°C° 0 mm 2 mps 707 mmHg 46%
    12:00 +31°C° 0 mm 2 mps 707 mmHg 44%
    13:00 +31°C° 0 mm 2 mps 707 mmHg 43%
    14:00 +31°C° 0 mm 3 mps 706 mmHg 45%
    15:00 +31°C° 0 mm 3 mps 706 mmHg 48%
    16:00 +31°C° 0 mm 3 mps 705 mmHg 50%
    17:00 +29°C° 0 mm 3 mps 705 mmHg 59%
    18:00 +27°C° 0 mm 2 mps 704 mmHg 68%
    19:00 +25°C° 0 mm 2 mps 704 mmHg 77%
    20:00 +23°C° 0 mm 2 mps 703 mmHg 82%
    21:00 +21°C° 0 mm 2 mps 703 mmHg 86%
    22:00 +20°C° 0 mm 2 mps 703 mmHg 90%
    23:00 +20°C° 0 mm 2 mps 702 mmHg 90%

    Tomorrow, 27 June, Thursday

    Time Temperature Precipitation Wind Pressure Humidity
    00:00 +20°C° 0 mm 2 mps 702 mmHg 91%
    01:00 +20°C° 0 mm 2 mps 702 mmHg 91%
    02:00 +19°C° 0.1 mm 2 mps 702 mmHg 92%
    03:00 +19°C° 0.1 mm 2 mps 702 mmHg 93%
    04:00 +19°C° 0.1 mm 2 mps 701 mmHg 94%
    05:00 +20°C° 0.6 mm 2 mps 701 mmHg 92%
    06:00 +21°C° 0.6 mm 2 mps 702 mmHg 90%
    07:00 +23°C° 0.6 mm 2 mps 702 mmHg 87%
    08:00 +23°C° 0.6 mm 2 mps 702 mmHg 89%
    09:00 +21°C° 0.6 mm 2 mps 701 mmHg 91%
    10:00 +20°C° 0.6 mm 3 mps 701 mmHg 93%
    11:00 +21°C° 0.1 mm 3 mps 701 mmHg 80%
    12:00 +22°C° 0.1 mm 4 mps 701 mmHg 68%
    13:00 +23°C° 0.1 mm 4 mps 701 mmHg 55%
    14:00 +23°C° 0 mm 4 mps 701 mmHg 52%
    15:00 +22°C° 0 mm 4 mps 701 mmHg 50%
    16:00 +22°C° 0 mm 5 mps 701 mmHg 47%
    17:00 +20°C° 0 mm 4 mps 700 mmHg 54%
    18:00 +18°C° 0 mm 3 mps 700 mmHg 62%
    19:00 +16°C° 0 mm 2 mps 700 mmHg 69%
    20:00 +15°C° 0 mm 2 mps 700 mmHg 73%
    21:00 +13°C° 0 mm 2 mps 700 mmHg 77%
    22:00 +12°C° 0 mm 1 mps 700 mmHg 81%
    23:00 +12°C° 0 mm 1 mps 700 mmHg 82%

    Day after tomorrow, 28 June, Friday

    Time Temperature Precipitation Wind Pressure Humidity
    00:00 +13°C° 0 mm 1 mps 700 mmHg 83%
    01:00 +13°C° 0 mm 1 mps 701 mmHg 84%
    02:00 +13°C° 0.2 mm 1 mps 701 mmHg 88%
    03:00 +13°C° 0.2 mm 1 mps 701 mmHg 92%
    04:00 +13°C° 0.2 mm 1 mps 701 mmHg 97%
    05:00 +13°C° 0.3 mm 1 mps 701 mmHg 95%
    06:00 +13°C° 0.3 mm 2 mps 701 mmHg 93%
    07:00 +14°C° 0.3 mm 2 mps 701 mmHg 91%
    08:00 +15°C° 0 mm 2 mps 702 mmHg 79%
    09:00 +16°C° 0 mm 3 mps 702 mmHg 67%
    10:00 +17°C° 0 mm 3 mps 702 mmHg 54%
    11:00 +18°C° 0 mm 3 mps 702 mmHg 53%
    12:00 +18°C° 0 mm 2 mps 702 mmHg 52%
    13:00 +19°C° 0 mm 2 mps 702 mmHg 52%
    14:00 +18°C° 0 mm 2 mps 702 mmHg 55%
    15:00 +18°C° 0 mm 2 mps 702 mmHg 58%
    16:00 +18°C° 0 mm 2 mps 701 mmHg 61%
    17:00 +17°C° 0.2 mm 2 mps 701 mmHg 69%
    18:00 +16°C° 0.2 mm 1 mps 701 mmHg 78%
    19:00 +15°C° 0.2 mm 1 mps 701 mmHg 87%
    20:00 +14°C° 0.1 mm 1 mps 701 mmHg 89%
    21:00 +13°C° 0.1 mm 1 mps 701 mmHg 91%
    22:00 +12°C° 0.1 mm 1 mps 702 mmHg 93%
    23:00 +12°C° 0 mm 1 mps 702 mmHg 93%

    29 June, Saturday

    Time Temperature Precipitation Wind Pressure Humidity
    00:00 +11°C° 0 mm 1 mps 702 mmHg 93%
    01:00 +11°C° 0 mm 1 mps 702 mmHg 93%
    02:00 +10°C° 0 mm 1 mps 702 mmHg 91%
    03:00 +9°C° 0 mm 1 mps 702 mmHg 89%
    04:00 +8°C° 0 mm 1 mps 702 mmHg 87%
    05:00 +10°C° 0 mm 1 mps 702 mmHg 82%
    06:00 +12°C° 0 mm 1 mps 702 mmHg 76%
    07:00 +14°C° 0 mm 1 mps 703 mmHg 71%
    08:00 +15°C° 0 mm 2 mps 703 mmHg 65%
    09:00 +16°C° 0 mm 2 mps 703 mmHg 59%
    10:00 +18°C° 0 mm 3 mps 704 mmHg 53%
    11:00 +18°C° 0 mm 3 mps 704 mmHg 53%
    12:00 +19°C° 0 mm 3 mps 703 mmHg 53%
    13:00 +19°C° 0 mm 3 mps 703 mmHg 52%
    14:00 +19°C° 0 mm 3 mps 703 mmHg 53%
    15:00 +19°C° 0 mm 2 mps 703 mmHg 54%
    16:00 +20°C° 0 mm 2 mps 703 mmHg 54%
    17:00 +18°C° 0 mm 2 mps 703 mmHg 61%
    18:00 +18°C° 0 mm 1 mps 702 mmHg 68%
    19:00 +15°C° 0 mm 0 mps 702 mmHg 75%
    20:00 +15°C° 0 mm 1 mps 702 mmHg 78%
    21:00 +13°C° 0 mm 1 mps 702 mmHg 81%
    22:00 +12°C° 0 mm 1 mps 702 mmHg 83%
    23:00 +12°C° 0 mm 1 mps 702 mmHg 83%

    30 June, Sunday

    Time Temperature Precipitation Wind Pressure Humidity
    00:00 +12°C° 0 mm 1 mps 702 mmHg 83%
    01:00 +11°C° 0 mm 1 mps 702 mmHg 83%
    02:00 +11°C° 0 mm 1 mps 702 mmHg 83%
    03:00 +11°C° 0 mm 1 mps 702 mmHg 83%
    04:00 +11°C° 0 mm 1 mps 702 mmHg 83%
    05:00 +13°C° 0 mm 1 mps 702 mmHg 77%
    06:00 +15°C° 0 mm 1 mps 703 mmHg 70%
    07:00 +19°C° 0 mm 1 mps 703 mmHg 64%
    08:00 +21°C° 0 mm 1 mps 703 mmHg 58%
    09:00 +23°C° 0 mm 1 mps 704 mmHg 53%
    10:00 +24°C° 0 mm 2 mps 704 mmHg 47%
    11:00 +25°C° 0 mm 2 mps 704 mmHg 45%
    12:00 +26°C° 0 mm 2 mps 704 mmHg 44%
    13:00 +27°C° 0 mm 2 mps 704 mmHg 42%
    14:00 +27°C° 0 mm 2 mps 703 mmHg 45%
    15:00 +27°C° 0 mm 2 mps 703 mmHg 47%
    16:00 +27°C° 0 mm 2 mps 703 mmHg 50%
    17:00 +25°C° 0 mm 2 mps 702 mmHg 59%
    18:00 +23°C° 0 mm 2 mps 702 mmHg 68%
    19:00 +21°C° 0 mm 1 mps 701 mmHg 78%
    20:00 +19°C° 0 mm 2 mps 701 mmHg 83%
    21:00 +17°C° 0 mm 2 mps 701 mmHg 88%
    22:00 +16°C° 0 mm 2 mps 701 mmHg 93%
    23:00 +15°C° 0 mm 2 mps 701 mmHg 93%

    1 July, Monday

    Time Temperature Precipitation Wind Pressure Humidity
    00:00 +15°C° 0 mm 2 mps 700 mmHg 93%
    01:00 +14°C° 0 mm 2 mps 700 mmHg 93%
    02:00 +14°C° 0 mm 2 mps 700 mmHg 91%
    03:00 +14°C° 0 mm 2 mps 700 mmHg 89%
    04:00 +13°C° 0 mm 2 mps 700 mmHg 87%
    05:00 +16°C° 0 mm 2 mps 700 mmHg 80%
    06:00 +18°C° 0 mm 2 mps 700 mmHg 72%
    07:00 +20°C° 0 mm 2 mps 701 mmHg 65%
    08:00 +23°C° 0 mm 2 mps 701 mmHg 61%
    09:00 +25°C° 0 mm 3 mps 701 mmHg 58%
    10:00 +27°C° 0 mm 3 mps 701 mmHg 54%
    11:00 +28°C° 0 mm 3 mps 701 mmHg 52%
    12:00 +29°C° 0 mm 3 mps 701 mmHg 50%
    13:00 +30°C° 0 mm 3 mps 701 mmHg 49%
    14:00 +29°C° 0 mm 3 mps 700 mmHg 51%
    15:00 +29°C° 0 mm 3 mps 700 mmHg 53%
    16:00 +29°C° 0 mm 3 mps 699 mmHg 55%
    17:00 +27°C° 0.7 mm 3 mps 699 mmHg 66%
    18:00 +24°C° 0.7 mm 2 mps 698 mmHg 77%
    19:00 +22°C° 0.7 mm 1 mps 698 mmHg 88%
    20:00 +20°C° 2.2 mm 2 mps 698 mmHg 91%
    21:00 +19°C° 2.2 mm 2 mps 698 mmHg 94%
    22:00 +18°C° 2.2 mm 2 mps 698 mmHg 97%
    23:00 +18°C° 0.2 mm 2 mps 698 mmHg 97%
    Show more